Location: Asar Burnu
(36.5203°N, 30.5523°E)
Time: 08:50:00
(UTC+00:00)

Cosmos 1515 - Pass Details

Date: 04 August 2024
Orbit: 435 x 441 km, 82.5° (Epoch: 14 September)

Event Time Altitude Azimuth Distance (km) Brightness Sun altitude
Rises 19:04:50 0° 357° (N) 2,451 7.8 -21.9°
Reaches altitude 10° 19:06:56 10° 0° (N) 1,571 6.7 -22.2°
Enters shadow 19:09:16 39° 19° (NNE) 684 4.4 -22.5°
